FW7086 Weather Reports


time (UTC)temp
C
wind
direction
speed
KPH
gust
KPH
rain 1hr
cm
rain 24hr
cm
rain mn
cm
humidity
%
barometer
mb
20260906113004 20 27 1.6 1.6 0.00 0.00 0.00 93 1019.7
20260906112459 21 51 1.6 1.6 0.00 0.00 0.00 93 1019.7
20260906111955 21 42 0.0 0.0 0.00 0.00 0.00 92 1019.7
20260906111454 21 38 0.0 0.0 0.00 0.00 0.00 92 1019.8
20260906110949 21 34 0.0 0.0 0.00 0.00 0.00 92 1019.8
20260906110444 21 54 0.0 0.0 0.00 0.00 0.00 92 1019.7
20260906105943 21 52 0.0 0.0 0.00 0.00 0.00 92 1019.7
20260906105439 21 23 1.6 1.6 0.00 0.00 0.00 92 1019.8
20260906104936 21 11 3.2 3.2 0.00 0.00 0.00 92 1019.5
20260906104434 21 29 1.6 1.6 0.00 0.00 0.00 92 1019.4
20260906103933 21 32 0.0 0.0 0.00 0.00 0.00 92 1019.5
20260906103431 21 71 0.0 0.0 0.00 0.00 0.00 91 1019.2
20260906102927 21 16 1.6 1.6 0.00 0.00 0.00 91 1019.3
20260906102427 21 44 0.0 1.6 0.00 0.00 0.00 91 1019.2
20260906101921 21 27 0.0 1.6 0.00 0.00 0.00 91 1019.2
20260906101417 21 40 0.0 0.0 0.00 0.00 0.00 91 1019.2
20260906100912 21 55 0.0 1.6 0.00 0.00 0.00 90 1018.9
20260906100412 21 34 1.6 3.2 0.00 0.00 0.00 90 1019.0
20260906095906 21 59 1.6 1.6 0.00 0.00 0.00 90 1019.0
20260906095402 21 37 0.0 1.6 0.00 0.00 0.00 90 1019.1
20260906094902 21 20 4.8 4.8 0.00 0.00 0.00 90 1019.1
20260906094357 21 18 3.2 4.8 0.00 0.00 0.00 90 1018.9
20260906093853 21 17 0.0 1.6 0.00 0.00 0.00 90 1019.0
20260906093349 22 29 1.6 3.2 0.00 0.00 0.00 90 1019.2
20260906092848 22 38 0.0 1.6 0.00 0.00 0.00 90 1019.2
20260906092343 22 44 0.0 0.0 0.00 0.00 0.00 89 1019.1
20260906091839 22 31 1.6 3.2 0.00 0.00 0.00 89 1019.0
20260906091335 22 46 1.6 1.6 0.00 0.00 0.00 89 1018.9
20260906090831 22 35 0.0 1.6 0.00 0.00 0.00 89 1018.8
20260906090330 22 38 0.0 0.0 0.00 0.00 0.00 89 1018.8
20260906085830 22 30 3.2 3.2 0.00 0.00 0.00 89 1019.1
20260906085329 22 42 0.0 1.6 0.00 0.00 0.00 89 1018.9
20260906084825 22 21 0.0 1.6 0.00 0.00 0.00 89 1019.0
20260906084324 22 42 0.0 0.0 0.00 0.00 0.00 90 1018.9
20260906083819 22 31 1.6 3.2 0.00 0.00 0.00 90 1019.0
20260906083315 22 3 3.2 3.2 0.00 0.00 0.00 91 1019.0
20260906082815 22 26 1.6 1.6 0.00 0.00 0.00 91 1018.9
20260906082310 22 84 1.6 3.2 0.00 0.00 0.00 91 1018.9
20260906081805 22 15 0.0 0.0 0.00 0.00 0.00 91 1019.0
20260906081301 22 47 0.0 0.0 0.00 0.00 0.00 91 1019.0
20260906080757 22 27 1.6 1.6 0.00 0.00 0.00 91 1018.8
20260906080254 22 22 1.6 3.2 0.00 0.00 0.00 91 1018.8
20260906075753 21 7 1.6 1.6 0.00 0.00 0.00 91 1019.1
20260906075253 22 24 0.0 0.0 0.00 0.00 0.00 91 1019.0
20260906074748 22 21 0.0 0.0 0.00 0.00 0.00 91 1019.1
20260906074247 22 21 0.0 0.0 0.00 0.00 0.00 90 1019.0
20260906073747 22 18 1.6 1.6 0.00 0.00 0.00 90 1019.0
20260906073242 22 39 1.6 3.2 0.00 0.00 0.00 90 1018.9
20260906072738 22 50 0.0 0.0 0.00 0.00 0.00 90 1019.0
20260906072233 22 24 3.2 3.2 0.00 0.00 0.00 90 1019.3
20260906071729 22 50 0.0 0.0 0.00 0.00 0.00 91 1019.2
20260906071229 22 20 0.0 0.0 0.00 0.00 0.00 91 1019.2
20260906070726 22 32 0.0 0.0 0.00 0.00 0.00 91 1019.3
20260906070221 22 33 0.0 0.0 0.00 0.00 0.00 91 1019.4
20260906065721 22 43 0.0 0.0 0.00 0.00 0.00 91 1019.0
20260906065216 22 13 3.2 3.2 0.00 0.00 0.00 91 1019.1
20260906064711 22 34 0.0 0.0 0.00 0.00 0.00 91 1019.2
20260906064207 22 38 1.6 3.2 0.00 0.00 0.00 91 1019.1
20260906063702 22 37 3.2 4.8 0.00 0.00 0.00 91 1019.2
20260906063157 22 29 1.6 1.6 0.00 0.00 0.00 92 1019.2
20260906062653 22 75 0.0 0.0 0.00 0.00 0.00 91 1019.0
20260906062152 22 118 1.6 1.6 0.00 0.00 0.00 91 1019.1
20260906061648 22 3 1.6 3.2 0.00 0.00 0.00 91 1019.3
20260906061148 22 45 1.6 3.2 0.00 0.00 0.00 91 1019.0
20260906060645 22 15 0.0 0.0 0.00 0.00 0.00 91 1019.3
20260906060142 22 52 0.0 1.6 0.00 0.00 0.00 91 1019.3
20260906055637 22 83 0.0 1.6 0.00 0.00 0.00 91 1019.2
20260906055132 22 347 3.2 4.8 0.00 0.00 0.00 91 1019.4
20260906054627 22 33 1.6 3.2 0.00 0.00 0.00 91 1019.1
20260906054122 22 39 0.0 0.0 0.00 0.00 0.00 91 1019.3
20260906053619 22 14 3.2 4.8 0.00 0.00 0.00 91 1019.2
20260906053114 22 13 1.6 3.2 0.00 0.00 0.00 91 1019.0
20260906052610 22 41 1.6 1.6 0.00 0.00 0.00 91 1019.0
20260906052106 22 20 1.6 1.6 0.00 0.00 0.00 91 1019.1
20260906051602 22 58 3.2 4.8 0.00 0.00 0.00 91 1018.7
20260906051057 22 151 6.4 6.4 0.00 0.00 0.00 91 1018.9
20260906050552 22 67 3.2 6.4 0.00 0.00 0.00 91 1018.8
20260906050048 22 117 3.2 3.2 0.00 0.00 0.00 91 1018.9
20260906045545 22 15 6.4 6.4 0.00 0.00 0.00 91 1019.0
20260906045041 22 55 1.6 1.6 0.00 0.00 0.00 91 1018.7
20260906044537 22 31 6.4 9.7 0.00 0.00 0.00 91 1018.7
20260906044032 22 51 1.6 1.6 0.00 0.00 0.00 90 1018.5
20260906043527 22 80 1.6 3.2 0.00 0.00 0.00 90 1018.6
20260906043024 22 27 0.0 1.6 0.00 0.00 0.00 90 1018.5
20260906042522 22 135 1.6 3.2 0.00 0.00 0.00 90 1018.2
20260906042017 22 57 3.2 4.8 0.00 0.00 0.00 90 1018.2
20260906041514 22 45 3.2 4.8 0.00 0.00 0.00 90 1018.2
20260906041013 22 17 14.5 17.7 0.00 0.00 0.00 90 1018.2
20260906040508 22 49 1.6 3.2 0.00 0.00 0.00 90 1018.0
20260906040004 22 35 8.0 9.7 0.00 0.00 0.00 90 1017.9
20260906035459 22 347 3.2 6.4 0.00 0.00 0.00 90 1018.1
20260906034955 22 53 4.8 9.7 0.00 0.00 0.00 90 1018.1
20260906034454 22 74 3.2 3.2 0.00 0.00 0.00 90 1018.1
20260906033949 22 39 3.2 4.8 0.00 0.00 0.00 89 1018.0
20260906033444 22 50 3.2 3.2 0.00 0.00 0.00 89 1018.0
20260906032940 22 21 1.6 1.6 0.00 0.00 0.00 89 1018.2
20260906032437 22 85 1.6 3.2 0.00 0.00 0.00 89 1018.2
20260906031937 22 56 0.0 1.6 0.00 0.00 0.00 89 1018.3
20260906031432 22 55 1.6 1.6 0.00 0.00 0.00 89 1018.0
20260906030927 22 43 3.2 3.2 0.00 0.00 0.00 89 1018.2
20260906030422 22 21 1.6 1.6 0.00 0.00 0.00 89 1018.3
20260906025916 22 20 0.0 1.6 0.00 0.00 0.00 89 1018.1
20260906025410 22 350 6.4 9.7 0.00 0.00 0.00 88 1018.1
20260906024909 22 31 6.4 6.4 0.00 0.00 0.00 88 1018.0
20260906024408 22 12 6.4 6.4 0.00 0.00 0.00 88 1018.2
20260906023904 22 28 0.0 1.6 0.00 0.00 0.00 88 1018.0
20260906023401 22 65 4.8 4.8 0.00 0.00 0.00 88 1017.9
20260906022900 22 5 3.2 4.8 0.00 0.00 0.00 87 1018.0
20260906022355 22 65 3.2 4.8 0.00 0.00 0.00 87 1017.7
20260906021851 22 20 6.4 12.9 0.00 0.00 0.00 87 1017.9
20260906021350 22 10 1.6 3.2 0.00 0.00 0.00 87 1018.2
20260906020845 22 147 4.8 4.8 0.00 0.00 0.00 87 1018.0
20260906020344 22 72 3.2 3.2 0.00 0.00 0.00 87 1018.1
20260906015839 22 3 3.2 4.8 0.00 0.00 0.00 87 1018.1
20260906015339 22 29 4.8 4.8 0.00 0.00 0.00 87 1018.0
20260906014838 22 49 0.0 0.0 0.00 0.00 0.00 87 1018.3
20260906014333 22 19 4.8 12.9 0.00 0.00 0.00 87 1018.2
20260906013830 22 23 1.6 1.6 0.00 0.00 0.00 87 1018.2
20260906013325 22 352 3.2 3.2 0.00 0.00 0.00 87 1018.3
20260906012820 22 349 1.6 4.8 0.00 0.00 0.00 87 1018.1
20260906012320 22 55 6.4 6.4 0.00 0.00 0.00 88 1018.4
20260906011815 22 29 1.6 3.2 0.00 0.00 0.00 88 1018.0
20260906011315 22 39 1.6 3.2 0.00 0.00 0.00 88 1018.1
20260906010811 22 55 6.4 11.3 0.00 0.00 0.00 88 1018.0
20260906010307 22 23 1.6 1.6 0.00 0.00 0.00 88 1017.9
20260906005802 22 137 1.6 3.2 0.00 0.00 0.00 88 1017.7
20260906005301 22 22 1.6 1.6 0.00 0.00 0.00 88 1017.7
20260906004800 22 35 6.4 6.4 0.00 0.00 0.00 88 1017.7
20260906004255 22 46 6.4 9.7 0.00 0.00 0.00 88 1017.6
20260906003755 22 110 6.4 9.7 0.00 0.00 0.00 89 1017.7
20260906003251 22 106 6.4 9.7 0.00 0.00 0.00 88 1017.6
20260906002747 22 62 6.4 14.5 0.00 0.00 0.00 88 1017.6
20260906002246 22 308 1.6 1.6 0.00 0.00 0.00 89 1017.3
20260906001742 22 71 9.7 11.3 0.00 0.00 0.00 88 1017.4
20260906001237 22 28 4.8 9.7 0.00 0.00 0.00 88 1017.6
20260906000732 22 6 3.2 4.8 0.00 0.00 0.00 88 1017.4
20260906000234 22 10 9.7 14.5 0.00 0.00 0.00 88 1017.5
20260905235727 22 52 3.2 4.8 0.00 0.00 0.00 88 1017.6
20260905235226 22 24 1.6 1.6 0.00 0.00 0.00 88 1017.6
20260905234722 22 80 1.6 1.6 0.00 0.00 0.00 89 1017.6
20260905234217 22 7 4.8 11.3 0.00 0.00 0.00 89 1017.7
20260905233713 22 27 3.2 4.8 0.00 0.00 0.00 89 1017.5
20260905233212 22 72 4.8 9.7 0.00 0.00 0.00 89 1017.5
20260905232707 22 7 12.9 17.7 0.00 0.00 0.00 89 1017.1
20260905232203 22 307 8.0 11.3 0.00 0.00 0.00 89 1017.2
20260905231658 22 347 6.4 11.3 0.00 0.00 0.00 89 1017.3
20260905231154 23 76 11.3 16.1 0.00 0.00 0.00 89 1017.4
20260905230650 23 28 4.8 9.7 0.00 0.00 0.00 88 1017.1
20260905230147 23 52 6.4 9.7 0.00 0.00 0.00 87 1017.1
20260905225647 23 16 3.2 4.8 0.00 0.00 0.00 87 1017.2
20260905225142 23 304 11.3 12.9 0.00 0.00 0.00 86 1017.2
20260905224642 23 28 11.3 14.5 0.00 0.00 0.00 86 1017.1
20260905224142 23 36 3.2 3.2 0.00 0.00 0.00 86 1017.2
20260905223639 23 72 9.7 12.9 0.00 0.00 0.00 86 1017.1
20260905223135 24 34 4.8 9.7 0.00 0.00 0.00 85 1017.1
20260905222631 25 348 8.0 9.7 0.00 0.00 0.00 84 1017.1
20260905222125 25 358 9.7 9.7 0.00 0.00 0.00 84 1017.4
20260905221621 25 43 6.4 11.3 0.00 0.00 0.00 83 1017.1
20260905221117 25 76 1.6 4.8 0.00 0.00 0.00 84 1017.1
20260905220613 25 28 4.8 6.4 0.00 0.00 0.00 83 1017.1
20260905220109 26 358 4.8 6.4 0.00 0.00 0.00 80 1016.8
20260905215608 26 90 4.8 9.7 0.00 0.00 0.00 80 1016.9
20260905215104 26 67 3.2 4.8 0.00 0.00 0.00 80 1017.1
20260905214601 26 53 3.2 4.8 0.00 0.00 0.00 79 1016.9
20260905214100 26 9 3.2 4.8 0.00 0.00 0.00 79 1016.9
20260905213555 26 62 9.7 12.9 0.00 0.00 0.00 77 1016.7
20260905213051 26 357 3.2 4.8 0.00 0.00 0.00 79 1016.8
20260905212551 26 18 1.6 1.6 0.00 0.00 0.00 78 1016.4
20260905212050 26 14 8.0 11.3 0.00 0.00 0.00 77 1016.5
20260905211546 26 60 3.2 4.8 0.00 0.00 0.00 77 1016.5
20260905211041 27 80 1.6 3.2 0.00 0.00 0.00 76 1016.5
20260905210537 26 351 3.2 3.2 0.00 0.00 0.00 77 1016.5
20260905210032 26 8 3.2 4.8 0.00 0.00 0.00 76 1016.7
20260905205531 27 106 6.4 11.3 0.00 0.00 0.00 75 1016.7
20260905205030 27 319 9.7 12.9 0.00 0.00 0.00 73 1016.5
20260905204525 27 65 3.2 3.2 0.00 0.00 0.00 74 1016.9
20260905204021 27 358 4.8 6.4 0.00 0.00 0.00 75 1016.4
20260905203520 26 127 3.2 3.2 0.00 0.00 0.00 76 1016.8
20260905203016 25 85 3.2 4.8 0.00 0.00 0.00 80 1016.4
20260905202511 25 35 9.7 12.9 0.00 0.00 0.00 80 1016.8
20260905202006 25 349 9.7 16.1 0.00 0.00 0.00 79 1016.9
20260905201502 26 19 6.4 6.4 0.00 0.00 0.00 79 1016.8
20260905201001 26 39 3.2 4.8 0.00 0.00 0.00 79 1016.8
20260905200457 26 16 6.4 6.4 0.00 0.00 0.00 78 1016.8
20260905195955 26 357 8.0 11.3 0.00 0.00 0.00 77 1017.0
20260905195450 26 40 6.4 9.7 0.00 0.00 0.00 78 1016.9
20260905194946 26 6 4.8 9.7 0.00 0.00 0.00 78 1016.8
20260905194445 26 34 0.0 0.0 0.00 0.00 0.00 80 1016.8
20260905193940 26 1 9.7 14.5 0.00 0.00 0.00 79 1016.8
20260905193440 26 328 6.4 9.7 0.00 0.00 0.00 78 1017.0
20260905192936 26 333 4.8 6.4 0.00 0.00 0.00 79 1016.7
20260905192431 26 306 1.6 3.2 0.00 0.00 0.00 79 1016.8
20260905191926 26 339 8.0 11.3 0.00 0.00 0.00 78 1017.1
20260905191426 26 75 4.8 6.4 0.00 0.00 0.00 80 1017.0
20260905190925 26 354 14.5 16.1 0.00 0.00 0.00 80 1017.1
20260905190423 26 39 3.2 4.8 0.00 0.00 0.00 80 1016.9
20260905185922 25 45 8.0 12.9 0.00 0.00 0.00 81 1017.2
20260905185417 26 5 3.2 9.7 0.00 0.00 0.00 81 1017.1
20260905184916 26 1 8.0 9.7 0.00 0.00 0.00 81 1017.1
20260905184411 26 115 6.4 11.3 0.00 0.00 0.00 80 1017.0
20260905183909 26 323 3.2 4.8 0.00 0.00 0.00 80 1017.1
20260905183404 26 4 1.6 4.8 0.00 0.00 0.00 80 1017.3
20260905182859 26 79 3.2 3.2 0.00 0.00 0.00 80 1017.2
20260905182358 26 30 1.6 3.2 0.00 0.00 0.00 81 1017.3
20260905181855 26 13 6.4 9.7 0.00 0.00 0.00 80 1017.2
20260905181354 26 22 6.4 9.7 0.00 0.00 0.00 81 1017.1
20260905180853 25 10 4.8 4.8 0.00 0.00 0.00 82 1017.1
20260905180349 25 29 3.2 6.4 0.00 0.00 0.00 82 1017.2
20260905175844 25 310 4.8 6.4 0.00 0.00 0.00 82 1016.9
20260905175343 26 23 8.0 11.3 0.00 0.00 0.00 81 1017.2
20260905174839 26 21 8.0 11.3 0.00 0.00 0.00 81 1017.0
20260905174334 26 338 6.4 6.4 0.00 0.00 0.00 81 1017.1
20260905173830 26 71 6.4 9.7 0.00 0.00 0.00 80 1016.9
20260905173326 26 39 3.2 4.8 0.00 0.00 0.00 80 1017.0
20260905172826 26 48 8.0 9.7 0.00 0.00 0.00 79 1017.1
20260905172324 26 107 4.8 6.4 0.00 0.00 0.00 79 1017.2
20260905171820 26 333 8.0 12.9 0.00 0.00 0.00 79 1016.9
20260905171317 27 336 3.2 4.8 0.00 0.00 0.00 76 1016.8
20260905170813 27 99 3.2 4.8 0.00 0.00 0.00 78 1017.0
20260905170308 26 70 0.0 1.6 0.00 0.00 0.00 79 1016.8
20260905165807 26 44 4.8 9.7 0.00 0.00 0.00 79 1017.1
20260905165306 26 1 4.8 6.4 0.00 0.00 0.00 81 1017.2
20260905164803 26 284 3.2 4.8 0.00 0.00 0.00 81 1017.3
20260905164258 26 69 3.2 4.8 0.00 0.00 0.00 80 1017.2
20260905163753 26 359 3.2 4.8 0.00 0.00 0.00 81 1017.3
20260905163250 26 27 3.2 4.8 0.00 0.00 0.00 81 1017.2
20260905162746 26 23 6.4 9.7 0.00 0.00 0.00 81 1017.0
20260905162245 26 279 3.2 9.7 0.00 0.00 0.00 82 1017.3
20260905161740 26 311 1.6 3.2 0.00 0.00 0.00 81 1017.2
20260905161239 26 340 1.6 3.2 0.00 0.00 0.00 81 1017.2
20260905160737 26 31 1.6 1.6 0.00 0.00 0.00 83 1017.3
20260905160237 26 345 3.2 3.2 0.00 0.00 0.00 82 1017.0
20260905155732 26 6 8.0 9.7 0.00 0.00 0.00 80 1017.0
20260905155231 27 53 3.2 4.8 0.00 0.00 0.00 80 1017.1
20260905154725 27 38 3.2 4.8 0.00 0.00 0.00 80 1016.9
20260905154222 27 78 3.2 3.2 0.00 0.00 0.00 80 1016.9
20260905153717 27 340 6.4 11.3 0.00 0.00 0.00 80 1016.9
20260905153213 27 46 1.6 3.2 0.00 0.00 0.00 79 1016.5
20260905152713 27 191 3.2 4.8 0.00 0.00 0.00 77 1016.5
20260905152207 27 100 3.2 9.7 0.00 0.00 0.00 79 1016.4
20260905151707 26 147 8.0 11.3 0.00 0.00 0.00 79 1016.4
20260905151203 26 336 4.8 4.8 0.00 0.00 0.00 79 1016.3
20260905150658 26 272 3.2 6.4 0.00 0.00 0.00 80 1016.4
20260905150156 26 131 1.6 3.2 0.00 0.00 0.00 79 1016.4
20260905145654 26 21 0.0 1.6 0.00 0.00 0.00 80 1016.5
20260905145149 26 9 4.8 6.4 0.00 0.00 0.00 82 1016.3
20260905144649 26 348 3.2 4.8 0.00 0.00 0.00 82 1016.3
20260905144149 26 37 3.2 4.8 0.00 0.00 0.00 82 1016.2
20260905143648 26 49 4.8 4.8 0.00 0.00 0.00 83 1016.4
20260905143149 25 3 3.2 4.8 0.00 0.00 0.00 85 1016.4
20260905142647 25 20 6.4 9.7 0.00 0.00 0.00 86 1016.4
20260905142147 25 72 8.0 12.9 0.00 0.00 0.00 85 1016.5
20260905141642 25 27 6.4 6.4 0.00 0.00 0.00 86 1016.1
20260905141138 25 70 3.2 4.8 0.00 0.00 0.00 87 1016.1
20260905140633 26 56 4.8 4.8 0.00 0.00 0.00 83 1015.9
20260905140133 26 69 1.6 1.6 0.00 0.00 0.00 83 1016.1
20260905135628 26 23 3.2 4.8 0.00 0.00 0.00 83 1016.2
20260905135123 25 41 3.2 3.2 0.00 0.00 0.00 86 1016.0
20260905134618 25 43 3.2 3.2 0.00 0.00 0.00 87 1016.1
20260905134116 25 343 9.7 14.5 0.00 0.00 0.00 87 1016.2
20260905133613 25 62 1.6 1.6 0.00 0.00 0.00 87 1016.4
20260905133112 25 14 1.6 1.6 0.00 0.00 0.00 89 1016.5
20260905132612 25 13 3.2 3.2 0.00 0.00 0.00 90 1016.5
20260905132107 24 352 9.7 12.9 0.00 0.00 0.00 91 1016.2
20260905131602 23 358 9.7 12.9 0.00 0.00 0.00 94 1016.2
20260905131057 23 47 3.2 3.2 0.00 0.00 0.00 95 1016.1
20260905130556 23 345 1.6 1.6 0.00 0.00 0.00 96 1016.1
20260905130051 23 19 1.6 1.6 0.00 0.00 0.00 97 1016.1
20260905125551 23 346 3.2 3.2 0.00 0.00 0.00 97 1016.0
20260905125047 23 1 4.8 6.4 0.00 0.00 0.00 97 1015.7
20260905124543 23 47 0.0 0.0 0.00 0.00 0.00 97 1015.8
20260905124039 23 36 3.2 3.2 0.00 0.00 0.00 97 1015.8
20260905123534 23 45 1.6 1.6 0.00 0.00 0.00 97 1015.5
20260905123031 23 54 0.0 3.2 0.00 0.00 0.00 96 1015.4
20260905122530 22 344 0.0 0.0 0.00 0.00 0.00 96 1015.4
20260905122025 22 349 0.0 1.6 0.00 0.00 0.00 96 1015.5
20260905121520 22 33 1.6 1.6 0.00 0.00 0.00 96 1015.4
20260905121015 22 90 1.6 3.2 0.00 0.00 0.00 96 1015.5
20260905120514 22 23 3.2 4.8 0.00 0.00 0.00 96 1015.6
20260905120011 22 14 1.6 3.2 0.00 0.00 0.00 96 1015.4
20260905115509 23 33 1.6 1.6 0.00 0.00 0.00 96 1015.1
20260905115004 23 337 4.8 4.8 0.00 0.00 0.00 96 1015.0
20260905114503 23 46 1.6 1.6 0.00 0.00 0.00 96 1014.9
20260905114002 23 70 0.0 0.0 0.00 0.00 0.00 96 1014.9
20260905113458 23 319 8.0 9.7 0.00 0.00 0.00 96 1014.8